Location: Iesi
(43.5167°N, 13.2333°E)
Time: 17:05:36
(UTC+00:00)

CZ-2D R/B - Pass Details

Date: 08 August 2020
Orbit: 792 x 845 km, 98.7° (Epoch: 23 September)

Event Time Altitude Azimuth Distance (km) Brightness Sun altitude
Rises 23:47:34 0° 25° (NNE) 3,412 6.4 -30.2°
Reaches altitude 10° 23:50:19 10° 37° (NE) 2,474 5.4 -30.1°
Enters shadow 23:54:54 27° 94° (E) 1,581 3.6 -29.9°
